Other Public Products
Issued by NWS Grand Forks, ND

Home | Current Version | Previous Version | Graphics & Text | Print | Product List | Glossary On
Versions: 1 2 3 4 5 6 7 8 9 10 11 12 13 14 15 16 17 18 19 20 21 22 23 24 25 26 27 28 29 30 31 32 33 34 35 36 37 38 39 40 41 42 43 44 45 46 47 48 49 50
000
FPUS83 KFGF 251931
OPUFGF
PRAIRIE TO PINES WEATHER ROUNDUP
NATIONAL WEATHER SERVICE EASTERN NORTH DAKOTA/GRAND FORKS ND
100 PM CST SAT FEB 25 2017

 **SATELLITE DATA USED TO AUGMENT SKY COVER AT AUTOMATED STATIONS**
 *****  WEATHER ACROSS EASTERN NORTH DAKOTA  *****

CITY           SKY/WX    TMP DP  RH WIND       PRES   REMARKS
GRAND FORKS    PTSUNNY   31  18  58 NW15      29.80F WCI  20
GRAND FORKS AF CLOUDY    29  20  67 NW10      29.80F WCI  20
GRAND CITY NWS NOT AVBL
BUXTON         NOT AVBL
DEVILS LAKE    PTSUNNY   23  18  81 W10       29.80F WCI  12
FARGO          CLOUDY    31  22  69 W13       29.83F WCI  21
WAHPETON ARPT  CLOUDY    32  21  64 W15       29.84F WCI  22
$$

 *****  WEATHER ACROSS CENTRAL AND WESTERN NORTH DAKOTA  *****

CITY           SKY/WX    TMP DP  RH WIND       PRES   REMARKS
JAMESTOWN      CLOUDY    26  21  81 NW14      29.81F WCI  14
BISMARCK       CLOUDY    27  21  78 NW10      29.86S WCI  17
MINOT          PTSUNNY   23  15  71 NW10      29.80F WCI  12
MINOT AFB      MIX PCPN  21  12  70 NW7       29.81F WCI  12
GARRISON         N/A     23  18  81 W6        29.82F WCI  16
WILLISTON      LGT SNOW  23  19  85 S7        29.79F FOG     WCI  15
DICKINSON      CLOUDY    25  18  74 W14       29.78F WCI  13
HETTINGER      PTSUNNY   29  17  61 W13       29.81F WCI  19
$$

 *****  OTHER OBSERVATIONS NORTHEAST NORTH DAKOTA  *****

CITY           SKY/WX    TMP DP  RH WIND       PRES   REMARKS
WALHALLA       NOT AVBL
LANGDON        NOT AVBL
CAVALIER         N/A     25  18  74 W14       29.79F WCI  13
GRAFTON        MOCLDY    27  21  80 W12G20    29.82F WCI  16
CANDO          NOT AVBL
FORT TOTTEN      N/A     26  22  86 NW7       29.95S WCI  18
ROLLA          FAIR      18  14  86 N15       29.77F WCI   3
RUGBY            N/A     18  14  86 W12       29.80F WCI   5
 ***** THE ABOVE OBSERVATIONS ARE NON NWS ARE NOT QUALITY
        CONTROLLED AND MAY MIS-REPORT RAIN FOR SNOW...
$$

 *****  OTHER OBSERVATIONS SOUTHEAST NORTH DAKOTA *****

CITY           SKY/WX    TMP DP  RH WIND       PRES   REMARKS
COOPERSTOWN    CLOUDY    25  21  86 NW10G18   29.80F WCI  15
VALLEY CITY    CLOUDY    28  28 100 W12       29.82F WCI  18
OAKES          NOT AVBL
GWINNER        MOCLDY    34  28  80 W13       29.83F WCI  25
SHEYENNE NWR     N/A     32  22  66 W14       29.95S WCI  22
BUFFALO        NOT AVBL
WYNDMERE         N/A     34  25  69 W16         N/A  WCI  23
 ***** THE ABOVE OBSERVATIONS ARE NON NWS ARE NOT QUALITY
       CONTROLLED AND MAY MIS-REPORT RAIN FOR SNOW...
$$

  *****  WEATHER ACROSS NORTHERN MINNESOTA  *****

CITY           SKY/WX    TMP DP  RH WIND       PRES   REMARKS
FLAG ISLAND    FLURRIES  16  10  79 S16       29.73F WCI   0
WARROAD        CLOUDY    21  16  79 SW8       29.75F WCI  12
ROSEAU         CLOUDY    23  18  80 SW10      29.74F WCI  12
HALLOCK        CLOUDY    25  21  86 W9        29.78F WCI  15
THF RVR FALLS    N/A    N/A N/A N/A W14       29.79
HALSTAD          N/A     29  21  73 W9          N/A  WCI  20
FOSSTON        CLOUDY    27  19  74 SW13G21   29.78F WCI  16
BAUDETTE       LGT SNOW  19  12  74 S9        29.75F WCI   8
WASKISH        LGT SNOW  19  16  86 CALM      29.76F
CROOKSTON      CLOUDY    28  21  74 NW13      29.80F WCI  18
$$
  *****  WEATHER ACROSS CENTRAL AND WEST MINNESOTA  *****

CITY           SKY/WX    TMP DP  RH WIND       PRES   REMARKS
BEMIDJI        CLOUDY    29  18  65 W10       29.76F WCI  19
PARK RAPIDS    PTSUNNY   27  16  63 SW12      29.79F WCI  17
WADENA         CLOUDY    28  18  64 W16G22    29.81F WCI  17
DETROIT LAKES  FLURRIES  28  23  80 W12       29.81F WCI  18
MOORHEAD       CLOUDY    28  23  80 W13       29.83F WCI  18
FERGUS FALLS   FLURRIES  30  21  69 W16       29.88F WCI  19
ELBOW LAKE     CLOUDY    31  20  64 SW15      29.85F HAZE    WCI  20
MORRIS MN      PTSUNNY   34  19  55 SW13      29.86F WCI  25
STAPLES        CLOUDY    28  18  64 W15       29.82F WCI  17
WHEATON        CLOUDY    37  19  48 SW14      29.86F
$$
  *****  WEATHER ELSEWHERE ACROSS MINNESOTA  *****

CITY           SKY/WX    TMP DP  RH WIND       PRES   REMARKS
DULUTH         FAIR      21   8  57 W8        29.78F WCI  11
INTRNTL FALLS  CLOUDY    18   8  65 W6        29.76F WCI  10
ELY            FAIR      21   1  42 W9G17     29.73F WCI  11
CLOQUET        CLOUDY    21   9  58 W13G18    29.80F WCI   9
BRAINERD       PTSUNNY   26  15  63 SW15      29.84F WCI  14
HIBBING        CLOUDY    19   5  54 NW10      29.78F WCI   7
ALEXANDRIA     CLOUDY    32  18  56 W20       29.85F WCI  20
SAINT CLOUD    FAIR      30  15  53 W9        29.88F WCI  22
MINNEAPOLIS    FAIR      31   8  38 NW9       29.92F WCI  23
$$

  *****  WEATHER ACROSS SOUTH DAKOTA  *****

CITY           SKY/WX    TMP DP  RH WIND       PRES   REMARKS
SIOUX FALLS    CLOUDY    26  17  68 SW14G20   29.97F WCI  14
BROOKINGS      FAIR      30  17  58 SW16      29.90F WCI  19
WATERTOWN      FAIR      32  17  54 SW17      29.86F WCI  21
HURON          FAIR      36  18  48 S12       29.89F
SISSETON         N/A     35  18  49 W15       29.84F
ABERDEEN       FAIR      37  17  44 SW13      29.85F
MITCHELL       PTSUNNY   32  19  58 S14       29.93F WCI  22
PIERRE         CLOUDY    36  20  52 SW9       29.84F
MOBRIDGE       CLOUDY    38  20  48 W14       29.78F
RAPID CITY     FAIR      33  15  47 N6        29.83F
$$

  *****  SOME WEATHER IN NEARBY STATES *****

CITY           SKY/WX    TMP DP  RH WIND       PRES   REMARKS
GLASGOW MT     CLOUDY    28  21  75 W13       29.76F WCI  17
GREAT FALLS MT CLOUDY    30   5  34 W20G31    29.75F WCI  17
CHEYENNE WY    FAIR      23   4  44 NW14G29   29.83F WCI  11
SCOTTSBLUFF NE FAIR      21  10  62 NW8       29.92F WCI  11
OMAHA NE       PTSUNNY   30  15  53 SW9       30.10F WCI  22
DES MOINES IA  CLOUDY    28  13  53 NW6       30.08F WCI  22
DAVENPORT IA   FAIR      25  16  68 W24       29.98S WCI   9
CHICAGO IL     FLURRIES  25  14  63 W15G24    29.86R WCI  13
EAU CLAIRE WI  FAIR      23   6  48 W12       29.88S WCI  12
LA CROSSE WI   FAIR      25  10  53 W13       29.94R WCI  14
$$

  *****  SOME NATIONAL WEATHER *****

CITY           SKY/WX    TMP DP  RH WIND       PRES   REMARKS
LA GUARDIA NY  PTSUNNY   63  55  75 S22       29.59F
RALEIGH NC     PTSUNNY   81  52  36 SW23G36   29.58F
ATLANTA GA     FAIR      64  21  19 W16G30    29.87F
NEW ORLEANS LA FAIR      65  37  35 NW13      30.05F
OKLAHOMA CITY  FAIR      43  13  29 VRB3      30.21F
ALBUQUERQUE NM FAIR      41   4  21 VRB5      30.04F
SALT LAKE CITY CLOUDY    28  21  75 SE5       30.09F WCI  23
LOS ANGELES CA PTSUNNY   58  38  47 SE5       30.11F
BOISE ID       FAIR      33  16  49 CALM      30.15S
SEATTLE WA     PTSUNNY   38  32  79 S7        30.23F
$$

*** WEATHER ACROSS MANITOBA...SASKATCHEWAN AND ONTARIO ***
                ***ONTARIO***

CITY           SKY/WX    TMP DP  RH WIND       PRES   REMARKS
GERALDTON      FLURRIES  10   3  72 NW15G21   29.52S WCI  -6
THUNDER BAY    MOSUNNY   21   9  58 NW20G29   29.66F WCI   6
SIOUX LOOKOUT  MOSUNNY   16   1  53 NW12G20   29.68F WCI   3
TORONTO        PTSUNNY   45  30  57 W26G37    29.47R
BIG TROUT LK   MOSUNNY    9  -6  52 NW5       29.64F WCI   0
PICKLE LAKE    PTSUNNY   10  -2  56 NW10G17   29.60F WCI  -3
DRYDEN         MOSUNNY   18   3  53 W14       29.69F WCI   4
KENORA         LGT SNOW  16   7  67 SW3       29.71F
$$
                *** MANITOBA***

CITY           SKY/WX    TMP DP  RH WIND       PRES   REMARKS
BRANDON        PTSUNNY   12   1  62 NW21      29.81F WCI  -6
DAUPHIN        CLOUDY    14   3  62 W12       29.81F WCI   0
ISLAND LAKE    MOSUNNY    5  -6  61 W7        29.72  WCI  -7
PILOT MOUND      N/A     16   9  73 NW18G24     N/A  WCI  -1
THE PAS        FLURRIES   5  -6  61 NW9       29.80F WCI  -9
THOMPSON       FLURRIES   5  -4  66 NW8       29.72F WCI  -8
WINNIPEG       LGT SNOW  16  12  86 NW17      29.77F WCI   0
LYNN LAKE      MOSUNNY    0  -8  71 NW10      29.71F WCI -17
CHURCHILL      CLOUDY    -8 -13  77 N2        29.77F
GILLAM         PTSUNNY    3  -8  60 NW6       29.72F WCI  -8
$$
                ***SASKATCHEWAN***

CITY           SKY/WX    TMP DP  RH WIND       PRES   REMARKS
ESTEVAN        FLURRIES  14   9  79 NW8       29.81F WCI   3
KINDERSLEY     LGT SNOW  18  10  73 SW8       29.75F WCI   7
LLOYDMINSTER   CLOUDY    16   9  73 SW12      29.70F WCI   3
PRINCE ALBERT  PTSUNNY   12   1  62 W12       29.79F WCI  -2
REGINA         PTSUNNY   14   5  67 NW10      29.80F WCI   1
YORKTON        FLURRIES   9   1  72 NW12G17   29.79F WC


USA.gov is the U.S. government's official web portal to all federal, state and local government web resources and services.